TimeEST,TemperatureF,Dew PointF,Humidity,Sea Level PressureIn,VisibilityMPH,Wind Direction,Wind SpeedMPH,Gust SpeedMPH,PrecipitationIn,Events,Conditions,WindDirDegrees,DateUTC
12:53 AM,36.0,30.9,82,29.95,10.0,South,3.5,-,N/A,,Overcast,180,2012-12-07 05:53:00
1:53 AM,37.0,30.9,79,29.95,9.0,SSW,5.8,-,N/A,,Overcast,210,2012-12-07 06:53:00
2:53 AM,37.0,30.9,79,29.94,10.0,South,5.8,-,N/A,,Overcast,190,2012-12-07 07:53:00
3:53 AM,37.0,30.9,79,29.94,10.0,WSW,4.6,-,N/A,,Mostly Cloudy,240,2012-12-07 08:53:00
4:53 AM,37.0,30.9,79,29.93,10.0,South,3.5,-,N/A,,Mostly Cloudy,180,2012-12-07 09:53:00
5:53 AM,37.0,30.9,79,29.93,10.0,Calm,Calm,-,N/A,,Overcast,0,2012-12-07 10:53:00
6:53 AM,36.0,32.0,86,29.95,9.0,Calm,Calm,-,0.00,Rain,Light Rain,0,2012-12-07 11:53:00
7:53 AM,37.0,34.0,89,29.96,8.0,Calm,Calm,-,0.00,,Overcast,0,2012-12-07 12:53:00
8:53 AM,37.0,35.1,93,29.96,5.0,Calm,Calm,-,0.00,,Overcast,0,2012-12-07 13:53:00
9:08 AM,37.4,35.6,93,29.93,4.0,Calm,Calm,-,0.00,Rain,Light Rain,0,2012-12-07 14:08:00
9:16 AM,37.4,35.6,93,29.93,4.0,Calm,Calm,-,0.00,Rain,Light Rain,0,2012-12-07 14:16:00
9:53 AM,37.9,36.0,93,29.97,3.0,South,3.5,-,0.01,Rain,Light Rain,180,2012-12-07 14:53:00
10:42 AM,37.4,37.4,100,29.95,3.0,SW,3.5,-,0.00,Rain,Light Rain,220,2012-12-07 15:42:00
10:53 AM,37.9,37.0,97,29.97,3.0,SSW,4.6,-,0.00,Rain,Light Rain,210,2012-12-07 15:53:00
11:00 AM,37.4,37.4,100,29.95,2.0,SSW,4.6,-,0.01,Rain,Light Rain,200,2012-12-07 16:00:00
11:28 AM,39.2,37.4,93,29.94,2.0,SW,3.5,-,0.01,Rain,Light Rain,220,2012-12-07 16:28:00
11:53 AM,39.0,37.9,96,29.96,2.0,Calm,Calm,-,0.01,Rain,Light Rain,0,2012-12-07 16:53:00
12:22 PM,39.2,39.2,100,29.92,2.0,Calm,Calm,-,0.00,Rain,Light Rain,0,2012-12-07 17:22:00
12:53 PM,39.9,39.0,97,29.93,2.0,Variable,3.5,-,0.00,Rain,Light Rain,0,2012-12-07 17:53:00
1:32 PM,41.0,39.2,93,29.90,2.0,Calm,Calm,-,0.00,Rain,Light Rain,0,2012-12-07 18:32:00
1:53 PM,41.0,39.9,96,29.92,2.0,Calm,Calm,-,0.00,,Overcast,0,2012-12-07 18:53:00
2:00 PM,42.8,39.2,87,29.90,2.0,Calm,Calm,-,N/A,,Overcast,0,2012-12-07 19:00:00
2:53 PM,42.1,39.9,92,29.92,2.0,Calm,Calm,-,N/A,,Overcast,0,2012-12-07 19:53:00
3:08 PM,42.8,39.2,87,29.90,2.0,Calm,Calm,-,N/A,,Overcast,0,2012-12-07 20:08:00
3:53 PM,42.1,41.0,96,29.91,2.0,Calm,Calm,-,N/A,,Overcast,0,2012-12-07 20:53:00
4:31 PM,42.8,39.2,87,29.91,3.0,Calm,Calm,-,N/A,,Overcast,0,2012-12-07 21:31:00
4:53 PM,42.1,41.0,96,29.93,3.0,Calm,Calm,-,N/A,,Overcast,0,2012-12-07 21:53:00
5:53 PM,42.1,41.0,96,29.94,4.0,Calm,Calm,-,N/A,,Overcast,0,2012-12-07 22:53:00
6:53 PM,42.1,39.9,92,29.94,5.0,Calm,Calm,-,N/A,,Overcast,0,2012-12-07 23:53:00
7:19 PM,42.8,39.2,87,29.91,4.0,NE,5.8,-,0.00,,Light Drizzle,40,2012-12-08 00:19:00
7:41 PM,41.0,39.2,93,29.91,4.0,NE,4.6,-,N/A,,Light Drizzle,40,2012-12-08 00:41:00
7:53 PM,41.0,39.0,93,29.94,3.0,NE,4.6,-,0.00,,Overcast,40,2012-12-08 00:53:00
8:35 PM,41.0,39.2,93,29.90,2.5,East,3.5,-,0.00,Rain,Light Rain,80,2012-12-08 01:35:00
8:53 PM,41.0,39.9,96,29.92,2.5,East,5.8,-,0.00,Rain,Light Rain,90,2012-12-08 01:53:00
9:00 PM,41.0,39.2,93,29.90,1.2,East,5.8,-,0.00,,Overcast,90,2012-12-08 02:00:00
9:31 PM,41.0,39.2,93,29.90,3.0,ENE,6.9,-,0.00,,Overcast,70,2012-12-08 02:31:00
9:49 PM,39.2,39.2,100,29.89,2.0,ENE,8.1,-,0.00,,Overcast,70,2012-12-08 02:49:00
9:53 PM,39.9,39.9,100,29.92,2.0,ENE,8.1,-,0.00,,Overcast,70,2012-12-08 02:53:00
10:53 PM,39.9,39.0,97,29.91,2.0,East,8.1,-,0.00,Rain,Light Rain,80,2012-12-08 03:53:00
11:30 PM,39.2,39.2,100,29.88,3.0,ESE,6.9,-,0.00,Rain,Light Rain,110,2012-12-08 04:30:00
11:53 PM,39.9,39.0,97,29.90,3.0,East,6.9,-,0.00,Rain,Light Rain,90,2012-12-08 04:53:00